This demonstration page uses our WeatherBlox Daily Observations layout. Learn more.

Left ArrowRight Arrow

Hourly Observations for May 3, 2022

Temp ( °F °C ) Dew Point ( °F °C ) Humidity (%) Winds ( mph kmh ) Pressure ( in mb ) Visibility ( mi km ) Precip ( " mm )
12:53 am 00:53 Cloudy 45 7.2 40 4.4 83 83 N 22 35 29.86 1011 10 16 0.00 0.00
1:53 am 01:53 Cloudy 44 6.7 40 4.4 85 85 N 21 33 29.88 1012 10 16 0.00 0.00
2:31 am 02:31 Cloudy 43 6.1 40 4.4 89 89 NNW 18 30 29.93 1014 10 16 0.00 0.00
2:53 am 02:53 Cloudy 43 6.1 39 3.9 86 86 NNW 15 24 29.91 1013 10 16 0.00 0.00
3:53 am 03:53 Cloudy 42 5.6 39 3.9 89 89 N 16 26 29.91 1013 10 16 0.00 0.00
4:01 am 04:01 Cloudy 42 5.6 39 3.9 89 89 N 15 24 29.95 1014 10 16 0.00 0.00
4:53 am 04:53 Cloudy 43 6.1 38 3.3 82 82 N 16 26 29.94 1014 10 16 0.00 0.00
5:53 am 05:53 Cloudy 42 5.6 39 3.9 89 89 NNW 20 31 29.97 1015 10 16 0.00 0.00
6:53 am 06:53 Cloudy 42 5.6 38 3.3 85 85 NNW 13 20 29.99 1016 10 16 0.00 0.00
7:53 am 07:53 Cloudy 43 6.1 39 3.9 86 86 N 17 28 30.02 1017 10 16 0.00 0.00
8:40 am 08:40 Cloudy 45 7.2 39 3.9 80 80 NNW 15 24 30.07 1018 10 16 0.00 0.00
8:53 am 08:53 Cloudy 45 7.2 39 3.9 80 80 NNW 17 28 30.05 1018 10 16 0.00 0.00
9:53 am 09:53 Cloudy 46 7.8 39 3.9 77 77 NNW 16 26 30.07 1018 10 16 0.00 0.00
10:53 am 10:53 Cloudy 49 9.4 40 4.4 71 71 N 8 13 30.09 1019 10 16 0.00 0.00
11:53 am 11:53 Mostly Cloudy 52 11.1 42 5.6 69 69 N 15 24 30.08 1019 10 16 0.00 0.00
12:53 pm 12:53 Mostly Cloudy 54 12.2 42 5.6 64 64 NNE 13 20 30.08 1019 10 16 0.00 0.00
1:53 pm 13:53 Cloudy 55 12.8 43 6.1 64 64 NE 8 13 30.07 1018 10 16 0.00 0.00
2:53 pm 14:53 Cloudy 56 13.3 43 6.1 62 62 NNE 5 7 30.06 1018 10 16 0.00 0.00
3:53 pm 15:53 Mostly Cloudy 57 13.9 44 6.7 62 62 VRB 5 7 30.04 1017 10 16 0.00 0.00
4:11 pm 16:11 Mostly Cloudy 58 14.4 44 6.7 60 60 VRB 7 11 30.02 1017 10 16 0.00 0.00
4:53 pm 16:53 Mostly Cloudy 59 15 45 7.2 60 60 NNE 7 11 30.02 1017 10 16 0.00 0.00
5:53 pm 17:53 Mostly Cloudy 60 15.6 45 7.2 58 58 ENE 8 13 30.00 1016 10 16 0.00 0.00
6:53 pm 18:53 Mostly Cloudy 57 13.9 44 6.7 62 62 ENE 9 15 30.00 1016 10 16 0.00 0.00
7:53 pm 19:53 Mostly Cloudy 56 13.3 44 6.7 65 65 E 9 15 29.99 1016 10 16 0.00 0.00
8:53 pm 20:53 Cloudy 55 12.8 44 6.7 67 67 E 13 20 30.01 1016 10 16 0.00 0.00
9:53 pm 21:53 Mostly Cloudy 53 11.7 44 6.7 72 72 E 9 15 30.02 1017 10 16 0.00 0.00
10:53 pm 22:53 Partly Cloudy 52 11.1 44 6.7 75 75 ESE 7 11 30.04 1017 10 16 0.00 0.00
11:53 pm 23:53 Partly Cloudy 51 10.6 44 6.7 77 77 E 8 13 30.03 1017 10 16 0.00 0.00

Powered by AerisWeather